Mora, MN

6:49 AM CDT on May 26, 2017 (GMT -0500)
Mora Municipal

Weather History for KJMR - March, 2012

Change the Weather History Date:

Tuesday, March 27, 2012

  Actual Average Record
Temperature  
Mean Temperature 52 °F -  
Max Temperature 64 °F 45 °F 75 °F (1946)
Min Temperature 39 °F 22 °F -4 °F (1965)
Degree Days  
Heating Degree Days 14    
Growing Degree Days 2 (Base 50)    
Moisture  
Dew Point 34 °F    
Average Humidity 57    
Maximum Humidity 75    
Minimum Humidity 37    
Precipitation  
Precipitation 0.01 in - - ()
Sea Level Pressure  
Sea Level Pressure 29.65 in    
Wind  
Wind Speed 15 mph (SSW)    
Max Wind Speed 25 mph    
Max Gust Speed 36 mph    
Visibility 10 miles    
Events Rain , Thunderstorm    
Averages and records for this station are not official NWS values.
T = Trace of Precipitation, MM = Missing Value Source: NWS Daily Summary

Daily Weather History Graph

Daily Weather History Graph

Search for Another Location

Airport or City:

Trip Planner

Search our weather history database for the weather conditions in past years. The results will help you decide how hot, cold, wet, or windy it might be!

Date:

Astronomy

Mar. 27, 2012 Rise Set
Actual Time 7:01 AM CDT 7:35 PM CDT
Civil Twilight 6:31 AM CDT 8:05 PM CDT
Nautical Twilight 5:56 AM CDT 8:41 PM CDT
Astronomical Twilight 5:19 AM CDT 9:18 PM CDT
Moon 9:16 AM CDT (3/27) 12:00 AM CDT (3/27)
Length of Visible Light 13h 33m
Length of Day
12h 34m
Waxing Crescent, 22% of the Moon is Illuminated
Mar 27
Waxing Crescent
Mar 30
First Quarter
Apr 6
Full
Apr 13
Last Quarter
Apr 21
New

Hourly Weather History & Observations

Time (CDT) Temp. Windchill Dew Point Humidity Pressure Visibility Wind Dir Wind Speed Gust Speed Precip Events Conditions
12:16 AM 39.2 °F 30.8 °F 23.0 °F 52% 29.93 in 10.0 mi SSE 15.0 mph 21.9 mph N/A   Mostly Cloudy
12:36 AM 39.2 °F 30.8 °F 23.0 °F 52% 29.91 in 10.0 mi SE 15.0 mph 25.3 mph N/A   Mostly Cloudy
12:56 AM 39.2 °F 30.5 °F 21.2 °F 49% 29.93 in 10.0 mi SE 16.1 mph 25.3 mph N/A   Mostly Cloudy
1:16 AM 39.2 °F 31.2 °F 21.2 °F 49% 29.91 in 10.0 mi SE 13.8 mph 20.7 mph N/A   Overcast
1:36 AM 39.2 °F 32.5 °F 21.2 °F 49% 29.89 in 10.0 mi SE 10.4 mph 16.1 mph N/A   Overcast
1:56 AM 39.2 °F 33.0 °F 21.2 °F 49% 29.87 in 10.0 mi SE 9.2 mph 16.1 mph N/A   Overcast
2:16 AM 39.2 °F 32.0 °F 21.2 °F 49% 29.85 in 10.0 mi SE 11.5 mph 19.6 mph N/A   Scattered Clouds
2:36 AM 41.0 °F 33.1 °F 21.2 °F 45% 29.83 in 10.0 mi SE 15.0 mph 21.9 mph N/A Thunderstorm Thunderstorm
2:56 AM 41.0 °F 33.1 °F 23.0 °F 49% 29.81 in 10.0 mi SE 15.0 mph 23.0 mph N/A   Clear
3:16 AM 41.0 °F 34.7 °F 23.0 °F 49% 29.82 in 10.0 mi SSE 10.4 mph 20.7 mph N/A   Clear
3:36 AM 41.0 °F 34.3 °F 23.0 °F 49% 29.81 in 10.0 mi SSE 11.5 mph 21.9 mph N/A   Clear
3:56 AM 39.2 °F 31.6 °F 23.0 °F 52% 29.79 in 10.0 mi SSE 12.7 mph 19.6 mph N/A   Clear
4:15 AM 41.0 °F 33.9 °F 24.8 °F 53% 29.77 in 10.0 mi SSE 12.7 mph 20.7 mph N/A   Clear
4:36 AM 41.0 °F 34.7 °F 26.6 °F 57% 29.75 in 10.0 mi SSE 10.4 mph 17.3 mph N/A   Clear
4:56 AM 39.2 °F 32.0 °F 28.4 °F 65% 29.74 in 10.0 mi SSE 11.5 mph 20.7 mph N/A Rain , Thunderstorm Light Thunderstorms and Rain
5:16 AM 39.2 °F 32.0 °F 30.2 °F 70% 29.73 in 7.0 mi SSE 11.5 mph - 0.01 in Rain , Thunderstorm Light Thunderstorms and Rain
5:36 AM 39.2 °F 32.5 °F 30.2 °F 70% 29.71 in 10.0 mi SSE 10.4 mph 16.1 mph 0.01 in   Overcast
5:56 AM 39.2 °F 32.0 °F 32.0 °F 75% 29.70 in 10.0 mi SSE 11.5 mph 17.3 mph N/A Thunderstorm Thunderstorm
6:16 AM 39.2 °F 33.6 °F 32.0 °F 75% 29.69 in 10.0 mi SSE 8.1 mph - N/A Thunderstorm Overcast
6:35 AM 41.0 °F 35.2 °F 32.0 °F 70% 29.68 in 10.0 mi SSE 9.2 mph - N/A   Overcast
6:56 AM 42.8 °F 36.6 °F 33.8 °F 70% 29.66 in 10.0 mi SSE 11.5 mph 18.4 mph N/A   Overcast
7:16 AM 42.8 °F 36.6 °F 32.0 °F 66% 29.64 in 10.0 mi SSE 11.5 mph 17.3 mph N/A   Overcast
7:36 AM 44.6 °F 38.4 °F 35.6 °F 71% 29.63 in 10.0 mi SSE 12.7 mph 18.4 mph N/A   Overcast
7:56 AM 44.6 °F 38.1 °F 35.6 °F 71% 29.61 in 10.0 mi SSE 13.8 mph 20.7 mph N/A   Overcast
8:16 AM 44.6 °F 37.8 °F 35.6 °F 71% 29.60 in 10.0 mi SSE 15.0 mph 24.2 mph N/A   Overcast
8:35 AM 44.6 °F 39.2 °F 35.6 °F 71% 29.60 in 10.0 mi South 10.4 mph 18.4 mph N/A   Overcast
8:56 AM 44.6 °F 39.2 °F 35.6 °F 71% 29.59 in 10.0 mi South 10.4 mph 19.6 mph N/A   Overcast
9:16 AM 46.4 °F 40.7 °F 35.6 °F 66% 29.58 in 10.0 mi South 12.7 mph 18.4 mph N/A   Overcast
9:35 AM 48.2 °F - 39.2 °F 71% 29.56 in 10.0 mi South 13.8 mph 20.7 mph N/A   Overcast
9:56 AM 53.6 °F - 41.0 °F 62% 29.55 in 10.0 mi South 15.0 mph 25.3 mph N/A   Scattered Clouds
10:16 AM 55.4 °F - 42.8 °F 63% 29.54 in 10.0 mi South 18.4 mph 27.6 mph N/A   Clear
10:36 AM 55.4 °F - 42.8 °F 63% 29.53 in 10.0 mi SSW 19.6 mph 31.1 mph N/A   Clear
10:55 AM 59.0 °F - 42.8 °F 55% 29.52 in 10.0 mi SSW 18.4 mph 29.9 mph N/A   Clear
11:16 AM 60.8 °F - 41.0 °F 48% 29.51 in 10.0 mi SW 24.2 mph 35.7 mph N/A   Clear
11:36 AM 62.6 °F - 41.0 °F 45% 29.51 in 10.0 mi SSW 25.3 mph 33.4 mph N/A   Clear
11:56 AM 62.6 °F - 39.2 °F 42% 29.51 in 10.0 mi SW 17.3 mph 33.4 mph N/A   Clear
12:35 PM 64.4 °F - 37.4 °F 37% 29.51 in 10.0 mi SW 25.3 mph 32.2 mph N/A   Clear
12:55 PM 64.4 °F - 41.0 °F 42% 29.51 in 10.0 mi SW 24.2 mph 31.1 mph N/A   Scattered Clouds
1:16 PM 64.4 °F - 42.8 °F 45% 29.51 in 10.0 mi WSW 18.4 mph 33.4 mph N/A   Scattered Clouds
1:36 PM 64.4 °F - 41.0 °F 42% 29.51 in 10.0 mi SW 24.2 mph 32.2 mph N/A   Mostly Cloudy
1:55 PM 62.6 °F - 41.0 °F 45% 29.52 in 10.0 mi SW 21.9 mph 32.2 mph N/A   Scattered Clouds
2:16 PM 62.6 °F - 41.0 °F 45% 29.52 in 10.0 mi WSW 19.6 mph 34.5 mph N/A   Mostly Cloudy
2:36 PM 64.4 °F - 42.8 °F 45% 29.52 in 10.0 mi SW 19.6 mph 33.4 mph N/A   Mostly Cloudy
2:56 PM 62.6 °F - 42.8 °F 48% 29.53 in 10.0 mi WSW 23.0 mph 35.7 mph N/A   Mostly Cloudy
3:16 PM 59.0 °F - 41.0 °F 51% 29.53 in 10.0 mi West 20.7 mph 34.5 mph N/A   Mostly Cloudy
3:36 PM 59.0 °F - 41.0 °F 51% 29.54 in 10.0 mi WSW 25.3 mph 32.2 mph N/A   Overcast
3:56 PM 59.0 °F - 41.0 °F 51% 29.56 in 10.0 mi WSW 16.1 mph 28.8 mph N/A   Overcast
4:16 PM 55.4 °F - 41.0 °F 58% 29.57 in 10.0 mi West 21.9 mph 33.4 mph N/A   Overcast
4:36 PM 55.4 °F - 41.0 °F 58% 29.58 in 10.0 mi West 23.0 mph 31.1 mph N/A   Overcast
4:56 PM 55.4 °F - 41.0 °F 58% 29.59 in 10.0 mi West 15.0 mph 31.1 mph N/A   Overcast
5:15 PM 55.4 °F - 41.0 °F 58% 29.60 in 10.0 mi West 20.7 mph 27.6 mph N/A   Overcast
5:36 PM 53.6 °F - 39.2 °F 58% 29.62 in 10.0 mi West 20.7 mph 27.6 mph N/A   Overcast
5:56 PM 53.6 °F - 41.0 °F 62% 29.63 in 10.0 mi West 20.7 mph 28.8 mph N/A   Overcast
6:15 PM 51.8 °F - 37.4 °F 58% 29.65 in 10.0 mi West 20.7 mph 33.4 mph N/A   Overcast
6:36 PM 50.0 °F - 37.4 °F 62% 29.65 in 10.0 mi West 20.7 mph 28.8 mph N/A   Overcast
6:55 PM 50.0 °F - 37.4 °F 62% 29.67 in 10.0 mi West 17.3 mph 27.6 mph N/A   Overcast
7:16 PM 50.0 °F - 37.4 °F 62% 29.67 in 10.0 mi West 18.4 mph 27.6 mph N/A   Overcast
7:35 PM 50.0 °F - 37.4 °F 62% 29.69 in 10.0 mi West 17.3 mph 26.5 mph N/A   Overcast
7:56 PM 48.2 °F - 35.6 °F 62% 29.70 in 10.0 mi West 12.7 mph 21.9 mph N/A   Overcast
8:15 PM 48.2 °F - 35.6 °F 62% 29.71 in 10.0 mi WNW 15.0 mph 21.9 mph N/A   Overcast
8:36 PM 48.2 °F - 35.6 °F 62% 29.72 in 10.0 mi WNW 17.3 mph 25.3 mph N/A   Overcast
8:56 PM 48.2 °F - 35.6 °F 62% 29.72 in 10.0 mi WNW 15.0 mph 25.3 mph N/A   Overcast
9:16 PM 46.4 °F 39.2 °F 35.6 °F 66% 29.73 in 10.0 mi West 18.4 mph 25.3 mph N/A   Overcast
9:36 PM 46.4 °F 40.1 °F 35.6 °F 66% 29.74 in 10.0 mi West 15.0 mph 21.9 mph N/A   Overcast
9:56 PM 44.6 °F 37.4 °F 33.8 °F 66% 29.75 in 10.0 mi West 16.1 mph 21.9 mph N/A   Overcast
10:16 PM 44.6 °F 39.2 °F 33.8 °F 66% 29.75 in 10.0 mi West 10.4 mph - N/A   Overcast
10:36 PM 44.6 °F 37.8 °F 33.8 °F 66% 29.76 in 10.0 mi West 15.0 mph 20.7 mph N/A   Overcast
10:56 PM 44.6 °F 38.4 °F 33.8 °F 66% 29.75 in 10.0 mi West 12.7 mph 17.3 mph N/A   Overcast
11:16 PM 44.6 °F 38.4 °F 35.6 °F 71% 29.76 in 10.0 mi West 12.7 mph 21.9 mph N/A   Overcast
11:35 PM 44.6 °F 39.2 °F 35.6 °F 71% 29.76 in 10.0 mi West 10.4 mph - N/A   Overcast
11:56 PM 44.6 °F 37.4 °F 33.8 °F 66% 29.77 in 10.0 mi West 16.1 mph 25.3 mph N/A   Overcast